Regional Weather Roundup
Issued by NWS Portland, ME

Home | Current Version | Previous Version | Text Only | Print | Product List | Glossary On
Versions: 1 2 3 4 5 6 7 8 9 10 11 12 13 14 15 16 17 18 19 20 21 22 23 24 25 26 27 28 29 30 31 32 33 34 35 36 37 38 39 40 41 42 43 44 45 46 47 48 49 50
000
ASUS41 KGYX 270610
RWRGYX
WEATHER ROUNDUP FOR MAINE AND NEW HAMPSHIRE
NATIONAL WEATHER SERVICE GRAY ME
100 AM EST MON FEB 27 2017

MEZ002-005-006-010-012-015-018-020-021-024-026-027-029-270700-
MAINE

CITY           SKY/WX    TMP DP  RH WIND       PRES   REMARKS
PORTLAND       CLEAR     27  11  51 SW5       30.15R
6HR MIN TEMP:  25; 6HR MAX TEMP:  33;

SANFORD        CLEAR     26  15  63 SW5       30.17R
BAR HARBOR     CLEAR     23  13  65 SW3       30.13R
WISCASSET      CLEAR     23  15  71 CALM      30.15R
6HR MIN TEMP:  22; 6HR MAX TEMP:  33;

ROCKLAND       CLEAR     22  13  68 CALM      30.14R
FRYEBURG       CLEAR     24  10  55 CALM      30.12R
6HR MIN TEMP:  21; 6HR MAX TEMP:  30;

LEWISTONAUBURN CLEAR     21  14  74 CALM      30.13R
AUGUSTA        CLEAR     22   9  57 S3        30.12R
6HR MIN TEMP:  21; 6HR MAX TEMP:  28;

WATERVILLE     CLEAR     21  11  65 CALM      30.08R
BANGOR         CLEAR     21  11  65 SW3       30.11R
6HR MIN TEMP:  19; 6HR MAX TEMP:  27;

GREENVILLE       N/A     17   8  67 CALM      29.96R
6HR MIN TEMP:  15; 6HR MAX TEMP:  18;

MILLINOCKET    CLEAR     20  10  65 VRB5      30.05R
6HR MIN TEMP:  20; 6HR MAX TEMP:  24;

HOULTON        CLEAR     20  11  68 W7        30.00R
6HR MIN TEMP:  20; 6HR MAX TEMP:  24;

PRESQUE ISLE   CLEAR     20  11  68 SW7       29.98R
6HR MIN TEMP:  20; 6HR MAX TEMP:  24; 6HR PCP: TRACE;

FRENCHVILLE    CLEAR     18   8  65 W10       29.89R WCI   6
6HR MIN TEMP:  17; 6HR MAX TEMP:  22;

CARIBOU        CLEAR     19  10  68 SW5       29.94R
6HR MIN TEMP:  19; 6HR MAX TEMP:  25;

$$

NHZ002-005-008-009-011-012-014-270700-
NEW HAMPSHIRE

CITY           SKY/WX    TMP DP  RH WIND       PRES   REMARKS
PORTSMOUTH     CLEAR     27  14  58 SW6       30.17R
ROCHESTER      CLEAR     27  13  55 CALM      30.15R
6HR MIN TEMP:  25; 6HR MAX TEMP:  33;

NASHUA         CLEAR     29  19  66 CALM      30.20R
MANCHESTER     CLEAR     29  14  53 S5        30.18R
6HR MIN TEMP:  29; 6HR MAX TEMP:  34;

CONCORD        CLEAR     26  14  60 S5        30.17R
6HR MIN TEMP:  24; 6HR MAX TEMP:  33;

LACONIA        CLEAR     27  16  63 MISG      30.14R
PLYMOUTH       FAIR      21  15  79 CALM      30.13R
BERLIN         CLEAR     11   7  84 CALM      30.05R
6HR MIN TEMP:  11; 6HR MAX TEMP:  24;

WHITEFIELD     CLEAR     15  10  80 CALM      30.07R
6HR MIN TEMP:  14; 6HR MAX TEMP:  25;

JAFFREY        CLEAR     26  15  63 S7        30.15R
6HR MIN TEMP:  26; 6HR MAX TEMP:  30;

KEENE          CLEAR     26  20  77 S3        30.20R
LEBANON        CLEAR     30  17  58 S10       30.13R
6HR MIN TEMP:  25; 6HR MAX TEMP:  32;

MT WASHINGTON  PTCLDY     3   0  85 W54         N/A  WCI -27
6HR MIN TEMP:   0; 6HR MAX TEMP:   4;

$$

VTZ005-007-008-270700-
VERMONT

CITY           SKY/WX    TMP DP  RH WIND       PRES   REMARKS
ST JOHNSBURY     N/A     17  14  88 MISG      30.09R
MONTPELIER     CLOUDY    28  15  58 SW10      30.09R WCI  19
BURLINGTON     CLOUDY    30  18  60 S13G23    30.09S WCI  20
$$

MAZ007-012-024-CTZ003-RIZ002-NYZ038-NYZ072-270700-
SOUTHERN NEW ENGLAND AND NY

CITY           SKY/WX    TMP DP  RH WIND       PRES   REMARKS
BOSTON         PTCLDY    32  18  56 SW10      30.22R
WORCESTER      CLEAR     27  16  63 W14       30.16R WCI  16
NANTUCKET      CLEAR     33  17  51 W12       30.25R
PROVIDENCE     CLEAR     28  17  63 S5        30.25R
HARTFORD       PTCLDY    27  18  69 S6        30.24R
ALBANY         MOCLDY    29  20  69 S8        30.21R
NEW YORK CITY  CLEAR     39  15  37 W8        30.29R
$$

ANZ081-ANZ082-ANZ150-NHZ014-MEZ023>029-270700-
COASTAL MARINE OBSERVATIONS

STATION/POSITION TIME  TEMP    WIND        PRES    WAVE
                       AIR SEA DIR/SP/G            HT/PER
                 (UTC) (F)     (DEG/KT/KT) (MB)    (FT/S)
MOUNT DESERT ROC 0600   29                 1020.4R
MATINICUS ROCK   0500   30     300/ 25/ 27 1019.2R
ISLE OF SHOALS   0500   33     250/ 15/ 17 1021.1R
JEFFREYS LEDGE   0506      43                N/A     4/10
CASHES LEDGE BUO 0550   33 42              1021.1R   6/ 6
GEORGES BANK BUO 0550   42 44              1020.5R  10/ 8
$$

.............KEY..............
   WCI - WIND CHILL
   TC  - TEMPERATURE IN CELSIUS
   VSB - VISIBILITY IN MILES
   HX  - HEAT INDEX
   FAIR- INDICATES FEW OR NO CLOUDS BELOW 12,000 FT, WITH NO
         SIGNIFICANT WEATHER AND/OR OBSTRUCTIONS TO VISIBILITY.






USA.gov is the U.S. government's official web portal to all federal, state and local government web resources and services.